Back to catalog

NUSAT-53

JANE GOODALL

AliveScienceSSO
NORAD 68432·PAYLOAD·🇦🇷 Argentina

Launched Mar 30, 2026 from Vandenberg Space Force Base

Loading…

Next Passes (next 24 hours)

TLE

FreshSource: Space-Track

Epoch: Sep 14, 2026, 03:12 UTC

1 68432U 26067S   26257.13393615  .00004692  00000-0  22567-3 0  9993
2 68432  97.4659 214.4990 0004575  77.6904 282.4842 15.19274225 25441

Track NUSAT-53 in real time with AllMySat

Download on the App Store